Weather History for Greenville, AL

Change the Weather History Date:

Thursday, August 8, 2013

  Actual Average Record
Temperature  
Mean Temperature 82 °F -  
Max Temperature 91 °F 90 °F 101 °F (1956)
Min Temperature 73 °F 69 °F 62 °F (1950)
Cooling Degree Days 17    
Growing Degree Days 32 (Base 50)    
Moisture  
Dew Point 73 °F    
Average Humidity 80    
Maximum Humidity 94    
Minimum Humidity 50    
Precipitation  
Precipitation 0.00 in - - ()
Sea Level Pressure  
Sea Level Pressure 29.97 in    
Wind  
Wind Speed 2 mph (SE)    
Max Wind Speed 10 mph    
Max Gust Speed -    
Visibility 9 miles    
Events Thunderstorm    
Averages and records for this station are not official NWS values.
T = Trace of Precipitation, MM = Missing Value Source: NWS Daily Summary

Daily Weather History Graph

Daily Weather History Graph

Search for Another Location

Airport:

Trip Planner

Search our weather history database for the weather conditions in past years. The results will help you decide how hot, cold, wet, or windy it might be!

Date:

Astronomy

Aug. 08, 2013 Rise Set
Actual Time 6:06 AM CDT 7:36 PM CDT
Civil Twilight 5:40 AM CDT 8:02 PM CDT
Nautical Twilight 5:09 AM CDT 8:34 PM CDT
Astronomical Twilight 4:36 AM CDT 9:06 PM CDT
Moon 7:43 AM CDT (8/8) 8:27 PM CDT (8/8)
Length of Visible Light 14h 22m
Length of Day
13h 29m
Waxing Crescent, 3% of the Moon is Illuminated
Aug 8
Waxing Crescent
Aug 14
First Quarter
Aug 20
Full
Aug 28
Last Quarter
Sep 5
New

Hourly Weather History & Observations

Time (CDT) Temp. Heat Index Dew Point Humidity Pressure Visibility Wind Dir Wind Speed Gust Speed Precip Events Conditions
1:56 AM 77.0 °F - 73.9 °F 90% 29.95 in 6.0 mi Calm Calm - N/A   Clear
2:56 AM 75.0 °F - 73.0 °F 94% 29.95 in 6.0 mi Calm Calm - N/A   Clear
3:56 AM 75.0 °F - 73.0 °F 94% 29.95 in 7.0 mi Calm Calm - N/A   Clear
4:56 AM 75.0 °F - 73.0 °F 94% 29.95 in 6.0 mi Calm Calm - N/A   Clear
5:56 AM 75.0 °F - 73.0 °F 94% 29.96 in 6.0 mi Calm Calm - N/A   Clear
6:27 AM 73.4 °F - 71.6 °F 94% 29.99 in 4.0 mi Calm Calm - N/A   Partly Cloudy
6:56 AM 75.0 °F - 73.0 °F 94% 29.99 in 4.0 mi Calm Calm - N/A   Clear
7:56 AM 75.9 °F - 73.9 °F 94% 29.99 in 4.0 mi SE 3.5 mph - N/A   Clear
8:56 AM 80.1 °F 85.1 °F 75.0 °F 85% 29.99 in 9.0 mi Variable 4.6 mph - N/A   Clear
9:45 AM 82.4 °F 89.5 °F 75.2 °F 79% 30.01 in 10.0 mi SSW 3.5 mph - N/A   Mostly Cloudy
9:56 AM 82.0 °F 88.6 °F 75.0 °F 79% 30.00 in 10.0 mi Variable 3.5 mph - N/A   Scattered Clouds
10:56 AM 86.0 °F 95.1 °F 75.0 °F 70% 30.01 in 10.0 mi SSE 3.5 mph - N/A   Clear
11:56 AM 90.0 °F 99.0 °F 73.9 °F 59% 30.00 in 10.0 mi NE 3.5 mph - N/A   Partly Cloudy
1:56 PM 91.9 °F 98.4 °F 71.1 °F 50% 29.95 in 10.0 mi Calm Calm - N/A   Clear
2:56 PM 87.1 °F 95.4 °F 73.9 °F 65% 29.96 in 10.0 mi South 8.1 mph - N/A   Mostly Cloudy
3:56 PM 90.0 °F 99.0 °F 73.9 °F 59% 29.94 in 10.0 mi ESE 9.2 mph - N/A   Scattered Clouds
4:04 PM 89.6 °F 98.2 °F 73.4 °F 59% 29.96 in 10.0 mi East 10.4 mph - N/A Thunderstorm Thunderstorm
4:23 PM 86.0 °F 93.4 °F 73.4 °F 66% 29.97 in 10.0 mi East 9.2 mph - N/A   Scattered Clouds
4:56 PM 84.9 °F 93.3 °F 75.0 °F 72% 29.96 in 10.0 mi East 5.8 mph - N/A   Clear
5:56 PM 84.9 °F 93.3 °F 75.0 °F 72% 29.96 in 10.0 mi South 4.6 mph - N/A Thunderstorm Thunderstorm
6:42 PM 80.6 °F 85.4 °F 73.4 °F 79% 29.98 in 10.0 mi Calm Calm - N/A   Clear
6:56 PM 80.1 °F 84.2 °F 73.0 °F 79% 29.96 in 10.0 mi SSE 4.6 mph - N/A   Clear
7:56 PM 78.1 °F - 72.0 °F 81% 29.99 in 10.0 mi Calm Calm - N/A   Clear
8:56 PM 77.0 °F - 72.0 °F 84% 29.98 in 10.0 mi SE 3.5 mph - N/A   Clear
9:56 PM 75.9 °F - 72.0 °F 87% 30.00 in 10.0 mi Calm Calm - N/A   Clear
10:56 PM 75.0 °F - 72.0 °F 90% 29.98 in 10.0 mi ESE 4.6 mph - N/A   Clear
11:56 PM 75.0 °F - 72.0 °F 90% 29.98 in 10.0 mi Calm Calm - N/A   Clear